GW0712 Weather Reports


Display with metric or nautical units.
time (UTC)temp
F
wind
direction
speed
MPH
gust
MPH
rain 1hr
in
rain 24hr
in
rain mn
in
humidity
%
barometer
mb
20260503225334 68 174 5.0 8.0 0.00 0.00 0.00 52 1007.5
20260503224830 68 137 3.0 6.0 0.00 0.00 0.00 50 1007.1
20260503224328 68 146 5.0 8.0 0.00 0.00 0.00 50 1007.1
20260503223825 68 118 4.0 6.0 0.00 0.00 0.00 52 1007.4
20260503223323 68 151 4.0 8.0 0.00 0.00 0.00 52 1007.3
20260503222818 68 176 7.0 8.0 0.00 0.00 0.00 51 1007.6
20260503222317 68 135 4.0 8.0 0.00 0.00 0.00 52 1007.5
20260503221815 68 119 3.0 6.0 0.00 0.00 0.00 51 1007.6
20260503221313 68 167 6.0 8.0 0.00 0.00 0.00 51 1007.6
20260503220809 68 163 7.0 8.0 0.00 0.00 0.00 52 1007.6
20260503220306 68 123 3.0 6.0 0.00 0.00 0.00 52 1007.4
20260503215802 68 177 6.0 8.0 0.00 0.00 0.00 51 1007.5
20260503215259 68 130 2.0 6.0 0.00 0.00 0.00 53 1007.2
20260503214757 68 143 5.0 11.0 0.00 0.00 0.00 51 1007.6
20260503214254 68 187 7.0 8.0 0.00 0.00 0.00 50 1007.4
20260503213752 68 135 4.0 11.0 0.00 0.00 0.00 51 1007.8
20260503213249 68 125 3.0 8.0 0.00 0.00 0.00 51 1007.8
20260503212746 68 128 3.0 6.0 0.00 0.00 0.00 54 1007.7
20260503212244 68 177 9.0 14.0 0.00 0.00 0.00 51 1007.7
20260503211741 68 135 4.0 8.0 0.00 0.00 0.00 53 1007.8
20260503211237 68 159 5.0 8.0 0.00 0.00 0.00 52 1008.1
20260503210732 68 128 4.0 8.0 0.00 0.00 0.00 52 1008.1
20260503210230 68 120 1.0 8.0 0.00 0.00 0.00 53 1008.0
20260503205726 68 157 7.0 8.0 0.00 0.00 0.00 51 1008.1
20260503205222 68 188 8.0 8.0 0.00 0.00 0.00 52 1008.3
20260503204718 67 137 5.0 8.0 0.00 0.00 0.00 52 1008.2
20260503204216 67 115 4.0 8.0 0.00 0.00 0.00 52 1008.2
20260503203713 67 131 5.0 6.0 0.00 0.00 0.00 54 1008.4
20260503203211 67 169 8.0 11.0 0.00 0.00 0.00 50 1008.5
20260503202708 66 94 6.0 11.0 0.00 0.00 0.00 53 1008.6
20260503202206 66 137 6.0 8.0 0.00 0.00 0.00 55 1008.5
20260503201703 66 133 3.0 8.0 0.00 0.00 0.00 57 1009.0
20260503201201 65 115 3.0 8.0 0.00 0.00 0.00 59 1009.0
20260503200657 65 120 2.0 6.0 0.00 0.00 0.00 60 1009.0
20260503200153 63 148 7.0 11.0 0.00 0.00 0.00 60 1009.4
20260503195650 63 118 4.0 6.0 0.00 0.00 0.00 61 1009.2
20260503195147 63 156 5.0 11.0 0.00 0.00 0.00 61 1009.4
20260503194644 65 131 4.0 8.0 0.00 0.00 0.00 59 1009.7
20260503194139 64 213 5.0 17.0 0.00 0.00 0.00 58 1009.9
20260503193637 63 242 7.0 14.0 0.00 0.00 0.00 59 1009.9
20260503193132 63 237 6.0 17.0 0.00 0.00 0.00 57 1010.1
20260503192628 64 217 7.0 17.0 0.00 0.00 0.00 57 1009.9
20260503192124 64 248 9.0 14.0 0.00 0.00 0.00 55 1010.1
20260503191621 65 258 9.0 17.0 0.00 0.00 0.00 53 1010.0
20260503191118 64 244 10.0 14.0 0.00 0.00 0.00 54 1010.2
20260503190615 65 224 9.0 14.0 0.00 0.00 0.00 52 1010.1
20260503190112 66 209 7.0 11.0 0.00 0.00 0.00 53 1010.2
20260503185608 65 195 6.0 14.0 0.00 0.00 0.00 53 1010.0
20260503185108 65 205 7.0 11.0 0.00 0.00 0.00 53 1010.1
20260503184604 66 232 6.0 17.0 0.00 0.00 0.00 53 1010.2
20260503184101 65 266 7.0 11.0 0.00 0.00 0.00 54 1010.2
20260503183557 65 182 4.0 14.0 0.00 0.00 0.00 53 1010.0
20260503183055 65 211 4.0 14.0 0.00 0.00 0.00 54 1010.3
20260503182553 65 178 3.0 11.0 0.00 0.00 0.00 55 1010.6
20260503182051 64 208 4.0 8.0 0.00 0.00 0.00 54 1010.4
20260503181547 64 248 6.0 8.0 0.00 0.00 0.00 56 1010.1
20260503181044 64 214 6.0 8.0 0.00 0.00 0.00 55 1010.5
20260503180541 64 144 5.0 11.0 0.00 0.00 0.00 56 1010.5
20260503180038 63 212 4.0 8.0 0.00 0.00 0.00 57 1010.7
20260503175535 63 203 5.0 11.0 0.00 0.00 0.00 57 1010.5
20260503175033 63 210 4.0 11.0 0.00 0.00 0.00 58 1010.8
20260503174530 62 145 5.0 6.0 0.00 0.00 0.00 61 1010.9
20260503174026 62 171 3.0 11.0 0.00 0.00 0.00 65 1011.0
20260503173521 62 272 4.0 8.0 0.00 0.00 0.00 63 1011.1
20260503173017 60 188 0.0 8.0 0.00 0.00 0.00 65 1011.2
20260503172516 60 184 2.0 8.0 0.00 0.00 0.00 64 1011.5
20260503172012 59 186 5.0 11.0 0.00 0.00 0.00 67 1011.5
20260503171509 59 233 7.0 11.0 0.00 0.00 0.00 64 1011.8
20260503171006 59 173 3.0 6.0 0.00 0.00 0.00 68 1011.6
20260503170502 58 190 4.0 11.0 0.00 0.00 0.00 65 1011.8
20260503150855 55 267 6.0 11.0 0.00 0.00 0.00 69 1013.7
20260503150351 55 184 1.0 6.0 0.00 0.00 0.00 68 1013.4
20260503140315 57 203 4.0 8.0 0.00 0.00 0.00 61 1013.9
20260503131244 54 248 8.0 8.0 0.00 0.00 0.00 63 1014.6
20260503130742 53 181 4.0 6.0 0.00 0.00 0.00 64 1014.4
20260503130239 53 205 4.0 8.0 0.00 0.00 0.00 64 1014.5
20260503120205 50 180 2.0 3.0 0.00 0.00 0.00 64 1014.5
20260503110633 49 184 3.0 8.0 0.00 0.00 0.00 62 1014.2
20260503110130 49 179 3.0 6.0 0.00 0.00 0.00 63 1014.2
20260503081440 47 179 2.0 3.0 0.00 0.00 0.00 64 1015.6
20260503080937 48 172 0.0 3.0 0.00 0.00 0.00 63 1015.4
20260503080433 48 171 0.0 0.0 0.00 0.00 0.00 63 1015.6
20260503072910 48 181 3.0 6.0 0.00 0.00 0.00 61 1015.7
20260503072408 48 169 0.0 3.0 0.00 0.00 0.00 63 1016.0
20260503071904 48 172 0.0 3.0 0.00 0.00 0.00 61 1015.5
20260503071402 48 178 1.0 3.0 0.00 0.00 0.00 61 1015.7
20260503070857 48 179 1.0 3.0 0.00 0.00 0.00 60 1015.8
20260503070355 48 181 3.0 3.0 0.00 0.00 0.00 60 1015.6
20260503060320 48 183 1.0 3.0 0.00 0.00 0.00 59 1016.3
20260503054808 48 178 1.0 3.0 0.00 0.00 0.00 59 1016.3
20260503054304 48 173 1.0 3.0 0.00 0.00 0.00 59 1016.6
20260503053802 48 175 1.0 3.0 0.00 0.00 0.00 59 1016.5
20260503053301 48 169 0.0 3.0 0.00 0.00 0.00 59 1016.4
20260503052756 48 171 1.0 3.0 0.00 0.00 0.00 60 1016.7
20260503052253 48 168 0.0 0.0 0.00 0.00 0.00 60 1016.4
20260503051749 48 173 2.0 3.0 0.00 0.00 0.00 60 1016.5
20260503051246 48 178 2.0 3.0 0.00 0.00 0.00 59 1016.5
20260503050742 48 175 1.0 6.0 0.00 0.00 0.00 59 1016.8
20260503050239 48 190 3.0 3.0 0.00 0.00 0.00 59 1016.5
20260503045736 48 176 1.0 3.0 0.00 0.00 0.00 59 1016.7
20260503045234 48 174 0.0 3.0 0.00 0.00 0.00 60 1016.8
20260503044730 48 167 0.0 0.0 0.00 0.00 0.00 60 1016.8
20260503044228 48 173 1.0 3.0 0.00 0.00 0.00 59 1016.8
20260503043724 48 182 1.0 3.0 0.00 0.00 0.00 60 1016.9
20260503043222 48 169 0.0 0.0 0.00 0.00 0.00 61 1016.6
20260503042718 48 171 0.0 3.0 0.00 0.00 0.00 62 1016.7
20260503042215 48 166 0.0 0.0 0.00 0.00 0.00 62 1016.9
20260503041710 48 166 0.0 3.0 0.00 0.00 0.00 62 1016.9
20260503041209 48 180 0.0 3.0 0.00 0.00 0.00 62 1016.8
20260503040706 47 165 0.0 0.0 0.00 0.00 0.00 62 1016.9
20260503040203 47 164 0.0 0.0 0.00 0.00 0.00 63 1016.9
20260503035659 47 169 0.0 0.0 0.00 0.00 0.00 63 1017.1
20260503035157 47 165 0.0 3.0 0.00 0.00 0.00 63 1017.2
20260503034654 47 164 0.0 0.0 0.00 0.00 0.00 64 1017.1
20260503034151 47 164 0.0 0.0 0.00 0.00 0.00 64 1017.1
20260503033649 47 164 0.0 0.0 0.00 0.00 0.00 64 1017.2
20260503033146 47 162 0.0 0.0 0.00 0.00 0.00 64 1017.3
20260503032644 47 162 0.0 0.0 0.00 0.00 0.00 64 1017.1
20260503032143 47 162 0.0 0.0 0.00 0.00 0.00 64 1017.1
20260503031639 47 163 0.0 0.0 0.00 0.00 0.00 64 1017.5
20260503031137 47 163 0.0 0.0 0.00 0.00 0.00 64 1017.2
20260503030633 47 161 0.0 0.0 0.00 0.00 0.00 65 1017.6
20260503030130 47 161 0.0 0.0 0.00 0.00 0.00 65 1017.4
20260503025626 47 161 0.0 0.0 0.00 0.00 0.00 64 1017.4
20260503025125 47 162 0.0 0.0 0.00 0.00 0.00 64 1017.5
20260503024621 47 161 0.0 0.0 0.00 0.00 0.00 64 1017.5
20260503024118 48 160 0.0 0.0 0.00 0.00 0.00 64 1017.6
20260503023615 48 161 0.0 0.0 0.00 0.00 0.00 63 1017.6
20260503023112 48 160 0.0 0.0 0.00 0.00 0.00 64 1017.4
20260503022608 48 160 0.0 0.0 0.00 0.00 0.00 63 1017.4
20260503022103 48 160 0.0 0.0 0.00 0.00 0.00 63 1017.5
20260503021600 48 160 0.0 0.0 0.00 0.00 0.00 62 1017.4
20260503021057 48 160 0.0 0.0 0.00 0.00 0.00 63 1017.6
20260503020554 48 160 0.0 0.0 0.00 0.00 0.00 62 1017.6
20260503020050 48 160 0.0 0.0 0.00 0.00 0.00 63 1017.4
20260503015547 48 160 0.0 0.0 0.00 0.00 0.00 63 1017.3
20260503015045 48 160 0.0 0.0 0.00 0.00 0.00 62 1017.3
20260503014540 48 160 0.0 0.0 0.00 0.00 0.00 62 1017.3
20260503014039 49 160 0.0 0.0 0.00 0.00 0.00 62 1017.2
20260503013535 49 160 0.0 0.0 0.00 0.00 0.00 61 1017.2
20260503013033 49 160 0.0 0.0 0.00 0.00 0.00 60 1017.3
20260503012530 50 160 0.0 0.0 0.00 0.00 0.00 60 1017.3
20260503012027 50 160 0.0 0.0 0.00 0.00 0.00 60 1017.1
20260503011523 50 160 0.0 0.0 0.00 0.00 0.00 59 1017.1
20260503011021 50 160 0.0 0.0 0.00 0.00 0.00 59 1017.2
20260503010517 51 160 0.0 0.0 0.00 0.00 0.00 59 1017.2
20260503010015 51 160 0.0 0.0 0.00 0.00 0.00 58 1017.4
20260503005512 51 160 0.0 0.0 0.00 0.00 0.00 57 1017.3
20260503005009 52 161 0.0 0.0 0.00 0.00 0.00 57 1017.3
20260503004505 52 161 0.0 0.0 0.00 0.00 0.00 57 1017.1
20260503004003 53 161 0.0 0.0 0.00 0.00 0.00 56 1017.2
20260503003459 53 161 0.0 0.0 0.00 0.00 0.00 54 1017.2
20260503002957 53 162 0.0 0.0 0.00 0.00 0.00 52 1017.2
20260503002454 54 163 0.0 0.0 0.00 0.00 0.00 52 1017.2
20260503001949 54 164 0.0 0.0 0.00 0.00 0.00 50 1017.1
20260503001447 54 166 0.0 0.0 0.00 0.00 0.00 49 1017.3
20260503000944 55 167 0.0 0.0 0.00 0.00 0.00 51 1017.3
20260503000441 55 171 0.0 3.0 0.00 0.00 0.00 47 1017.4
20260502235938 55 171 0.0 3.0 0.00 0.00 0.00 46 1017.2
20260502235435 55 173 2.0 3.0 0.00 0.00 0.00 46 1017.3
20260502234932 56 178 2.0 3.0 0.00 0.00 0.00 47 1017.3
20260502234429 56 173 1.0 3.0 0.00 0.00 0.00 47 1017.3
20260502233926 56 177 1.0 3.0 0.00 0.00 0.00 46 1017.5
20260502233421 56 183 3.0 3.0 0.00 0.00 0.00 45 1017.3
20260502232919 56 182 3.0 8.0 0.00 0.00 0.00 46 1017.8
20260502232415 57 171 0.0 0.0 0.00 0.00 0.00 47 1017.8
20260502231912 57 172 0.0 0.0 0.00 0.00 0.00 46 1017.9
20260502231409 56 173 0.0 3.0 0.00 0.00 0.00 46 1017.6
20260502230907 56 176 2.0 3.0 0.00 0.00 0.00 45 1017.8
20260502230405 56 177 1.0 3.0 0.00 0.00 0.00 46 1017.9
20260502225903 57 197 4.0 6.0 0.00 0.00 0.00 43 1017.6